Wind_Speed
6 5 15 19 16 4 13 10 13 11 8 13 15 15 15 15 14 16 20 25 25 22 18 20 14 10 13 17 17 17 17 17 18 20 20 20 19 19 19 19 18 18 18 20
3 7 12 12 10 11 16 15 11 6 9 13 13 16 16 18 19 18 19 24 25 22 21 21 17 11 15 16 18 19 19 18 18 19 19 19 19 19 19 20 21 22 22 23
2 10 12 14 11 11 11 14 13 9 9 6 4 13 17 19 21 23 24 24 16 22 25 19 21 17 13 18 17 19 20 22 23 23 23 22 22 22 22 21 22 24 25 26
3 13 12 13 9 12 10 8 10 10 9 6 8 5 7 13 18 21 26 21 21 17 14 15 17 19 13 17 20 20 20 22 24 24 24 23 22 21 22 22 23 25 26 26
3 15 14 17 10 5 4 9 10 6 7 3 8 6 4 4 13 19 17 22 23 23 19 19 22 18 15 16 23 22 21 20 21 21 20 19 20 20 21 21 22 23 24 25
4 2 3 5 4 2 11 12 10 5 3 5 11 9 5 5 6 10 15 24 23 24 26 26 26 26 24 23 23 24 21 19 19 19 18 19 19 20 21 22 23 24 25 25
10 7 2 2 10 9 8 15 4 4 4 4 4 7 11 10 7 6 9 10 12 16 26 28 27 31 30 27 26 25 23 21 20 19 18 18 18 19 20 21 20 20 21 21
3 7 6 2 3 8 13 10 3 6 4 3 2 5 1 3 3 5 11 12 14 16 12 21 22 23 31 30 29 27 24 22 19 17 16 17 18 18 18 18 18 20 20 21
5 3 2 3 1 2 6 5 3 3 2 1 3 3 12 4 3 4 6 6 10 12 13 15 16 17 24 31 31 29 24 21 18 17 16 16 16 17 17 18 19 20 20 21
4 5 2 2 1 7 2 7 4 1 3 4 3 4 3 7 7 10 11 11 12 12 11 15 17 19 21 23 25 23 21 18 15 15 15 15 16 17 18 19 19 20 20 20
5 3 3 5 4 9 5 4 2 3 2 2 1 2 1 5 1 7 8 13 13 11 9 9 9 13 21 24 23 21 18 15 14 14 15 15 16 17 17 18 18 19 19 19
1 4 5 2 1 3 9 11 12 8 5 2 3 4 5 5 5 2 6 17 16 13 5 6 10 17 21 21 19 17 16 15 14 14 16 17 18 18 19 19 19 18 18 18
4 4 4 2 2 2 5 9 9 4 2 7 6 3 1 1 4 3 11 17 12 9 5 9 14 18 20 22 20 18 16 15 15 15 16 17 17 18 18 19 19 19 17 17
3 3 3 5 2 5 9 15 15 13 5 11 15 15 10 13 14 21 26 15 11 9 10 12 17 20 21 20 19 18 17 16 16 16 16 17 16 17 19 19 18 18 16 16
1 2 2 2 3 2 4 13 18 18 19 12 13 18 18 15 15 20 22 23 19 15 14 18 19 21 23 23 22 20 19 18 17 17 16 17 16 16 16 14 15 14 15 15
2 2 2 1 1 4 6 10 12 18 19 21 23 26 19 25 16 18 17 15 19 17 14 18 21 23 25 26 25 23 21 19 18 17 17 17 17 15 13 11 12 12 12 13
6 5 4 3 1 4 7 12 14 9 10 14 18 21 16 15 19 22 23 22 21 19 16 18 23 28 28 27 26 24 21 19 18 18 18 17 16 15 13 12 12 11 12 12
7 6 3 3 4 5 3 1 2 8 9 11 15 16 17 17 20 25 23 23 24 21 17 14 18 25 28 27 25 24 23 21 19 19 18 17 16 15 14 13 13 12 12 11
2 4 3 3 3 6 3 3 2 1 2 1 5 7 12 16 18 14 8 16 16 17 14 14 13 18 24 25 25 25 23 22 21 18 17 16 16 15 14 14 13 13 13 12
4 3 2 2 2 3 2 3 3 3 3 3 4 8 11 11 7 7 19 20 12 11 18 18 16 14 19 21 23 23 22 20 19 17 16 16 16 15 15 14 13 12 13 13
4 2 7 6 4 4 3 4 4 4 3 8 6 11 10 6 10 18 19 13 10 6 8 11 11 12 15 18 19 20 20 19 17 17 16 16 16 15 15 14 14 14 15 15
6 5 3 4 5 6 6 5 2 3 6 8 12 12 13 14 16 13 11 7 5 5 3 1 3 6 9 12 14 16 17 16 17 16 15 15 15 15 15 15 16 17 17 17
4 2 1 5 2 4 3 2 2 2 8 10 14 15 13 15 13 10 7 4 5 4 2 1 1 2 4 8 11 14 14 15 15 15 15 15 15 15 16 17 18 19 20 19
0 2 2 2 2 1 3 2 4 10 14 18 18 18 15 15 12 10 6 4 3 3 4 3 3 3 5 7 9 11 14 14 15 14 15 15 16 16 18 19 20 20 20 21
3 3 3 4 4 8 5 4 15 22 19 20 21 20 18 15 14 11 10 9 7 7 8 8 9 9 9 10 9 10 12 15 16 15 14 16 18 18 19 21 21 21 20 20
3 2 2 2 7 6 15 19 23 23 21 19 21 22 17 14 14 12 13 12 11 10 10 11 12 13 14 15 16 16 16 15 15 16 16 17 19 19 20 22 22 22 22 22
Wind_Direction
162 198 178 175 191 235 178 161 183 202 179 207 222 238 239 244 241 241 244 233 238 243 240 253 250 245 228 217 218 220 226 228 228 229 231 235 239 244 245 247 248 252 256 260
92 184 156 155 159 166 161 166 173 136 183 206 209 232 235 230 238 241 240 236 228 232 229 243 246 247 232 232 231 229 230 231 233 236 239 240 243 244 248 249 250 253 257 260
50 168 153 163 154 161 170 182 168 159 157 188 244 251 241 241 244 244 244 235 232 233 232 235 241 239 250 235 235 235 236 236 235 237 241 245 249 254 257 259 258 258 260 262
149 153 155 144 139 167 170 214 177 151 176 210 204 258 229 235 238 239 244 249 242 242 243 226 234 235 255 243 242 245 244 243 239 238 240 243 248 253 258 260 261 262 263 264
184 165 164 169 155 154 116 165 166 173 207 245 194 254 233 279 243 246 249 248 247 246 245 252 249 242 248 255 244 241 245 240 235 234 237 242 248 255 259 261 263 264 265 266
124 115 147 147 127 155 141 125 102 106 206 246 232 232 253 256 291 271 251 243 244 253 256 253 258 258 252 244 243 237 229 227 229 232 238 244 250 255 259 261 262 264 267 268
135 139 87 81 125 142 186 158 134 187 208 243 74 224 259 283 252 273 295 262 264 259 255 251 243 243 240 235 231 227 224 224 227 231 237 246 254 258 260 261 262 262 263 264
144 155 156 34 175 176 176 195 180 195 199 196 139 228 193 287 323 295 273 281 283 265 276 248 238 238 242 232 224 224 222 222 227 235 245 254 258 258 257 258 260 261 261 263
130 103 88 43 91 197 170 205 30 92 68 239 178 219 269 274 307 344 325 292 293 282 263 260 252 231 221 219 218 218 216 219 227 239 247 252 255 258 261 262 262 263 265 265
119 114 293 143 112 58 281 142 184 260 203 225 159 253 175 147 67 13 11 357 333 312 280 259 252 234 214 207 205 204 208 216 228 239 246 252 257 261 264 264 264 263 264 265
141 130 124 175 215 200 175 197 205 269 267 270 281 190 135 186 156 335 9 10 353 331 298 264 227 203 195 198 198 201 210 218 225 238 250 258 264 266 267 267 265 265 265 266
89 104 145 161 62 315 242 224 217 229 199 241 310 261 171 232 276 284 0 351 345 332 297 223 191 192 190 194 200 208 218 226 236 249 261 266 270 271 270 270 270 267 265 265
170 125 115 85 320 281 222 212 228 217 19 206 244 232 75 172 200 231 318 328 332 316 259 201 196 194 195 197 204 211 221 233 245 257 264 270 271 273 273 270 267 266 263 262
143 162 234 190 97 176 206 212 214 219 231 242 235 260 244 258 279 294 299 301 328 306 256 219 208 208 208 213 217 222 229 239 249 258 265 267 271 275 277 271 266 260 258 257
143 138 99 92 78 169 228 218 218 216 226 239 255 257 262 281 297 295 290 287 294 273 245 228 220 218 220 221 221 225 233 241 252 259 265 269 274 278 285 276 266 262 253 251
5 110 113 118 77 245 248 228 225 230 238 245 254 268 279 283 289 297 292 288 288 289 255 237 231 227 227 226 226 230 236 245 253 260 265 269 273 274 278 273 276 276 268 258
152 145 171 195 273 269 259 245 222 222 239 245 248 258 286 290 296 296 295 290 281 277 272 252 249 237 232 230 231 235 239 245 254 259 263 267 264 259 262 264 263 265 266 257
157 158 164 173 213 226 90 235 247 235 265 247 261 276 289 298 302 294 293 283 275 267 271 266 249 237 236 236 235 235 237 243 250 256 259 263 258 252 253 256 258 263 255 243
192 173 147 221 212 313 120 141 164 239 59 149 248 297 308 315 313 315 347 334 287 258 261 275 274 245 238 238 233 234 239 244 249 254 261 258 249 247 250 251 253 247 236 226
165 202 217 163 232 247 113 133 159 189 185 22 263 306 315 326 315 340 331 333 325 267 257 273 277 245 231 230 232 232 238 246 252 259 260 254 249 247 245 244 242 231 214 210
161 175 204 200 242 275 245 212 167 221 68 341 318 314 311 298 300 301 320 326 328 313 273 263 249 227 223 227 226 229 238 247 254 254 253 249 245 240 237 232 225 213 205 202
188 183 198 208 220 257 149 123 241 32 332 323 319 309 304 305 309 308 323 338 354 7 24 66 200 215 217 221 229 239 247 250 251 251 249 246 238 229 224 219 216 206 200 197
206 252 208 231 225 66 124 58 342 27 329 328 323 323 299 298 304 301 313 348 14 11 31 82 135 236 249 251 251 253 254 255 253 248 245 242 231 224 220 217 210 203 201 203
142 344 269 261 132 62 285 198 44 347 330 331 324 311 308 291 294 289 251 277 297 316 326 308 302 290 294 283 274 267 259 253 248 247 247 244 233 225 219 214 210 209 210 208
19 320 329 277 299 331 149 12 331 324 322 323 321 318 302 282 278 269 252 278 277 280 276 279 281 280 286 281 276 260 276 274 257 245 241 254 238 228 221 217 215 215 215 217
24 28 304 305 334 316 297 312 318 313 311 315 315 312 305 275 267 258 256 271 276 278 278 278 278 278 278 274 269 268 264 257 256 251 247 250 244 233 228 224 222 220 218 220
Height
1498 1495 1489 1488 1491 1490 1494 1501 1507 1507 1513 1517 1516 1515 1515 1516 1519 1517 1517 1516 1521 1525 1529 1532 1534 1534 1535 1537 1538 1540 1542 1545 1547 1549 1549 1551 1553 1554 1555 1556 1557 1558 1559 1559
1502 1494 1488 1495 1499 1500 1501 1503 1505 1511 1513 1516 1512 1513 1510 1511 1513 1513 1512 1512 1514 1521 1525 1527 1530 1531 1532 1534 1536 1538 1539 1541 1544 1545 1547 1548 1549 1550 1551 1551 1553 1553 1554 1554
1499 1496 1497 1497 1499 1499 1499 1500 1505 1505 1514 1515 1514 1510 1505 1505 1508 1508 1508 1508 1510 1515 1520 1523 1526 1528 1529 1531 1532 1534 1536 1538 1539 1541 1542 1544 1545 1546 1546 1547 1548 1548 1549 1549
1500 1495 1496 1497 1499 1498 1507 1505 1507 1511 1510 1512 1511 1502 1495 1497 1500 1503 1503 1506 1510 1513 1515 1517 1520 1522 1525 1526 1528 1530 1531 1533 1534 1536 1537 1539 1541 1541 1541 1541 1542 1543 1543 1543
1501 1495 1497 1500 1500 1501 1507 1509 1509 1511 1508 1512 1514 1514 1490 1499 1494 1495 1499 1502 1506 1509 1511 1513 1517 1519 1520 1523 1524 1525 1526 1528 1529 1531 1533 1535 1536 1537 1536 1537 1537 1537 1537 1537
1501 1501 1501 1500 1505 1504 1510 1510 1511 1514 1513 1519 1506 1511 1494 1493 1493 1492 1495 1498 1500 1502 1504 1507 1510 1512 1514 1517 1520 1521 1522 1524 1526 1528 1529 1531 1531 1532 1532 1532 1532 1532 1531 1531
1503 1504 1506 1506 1506 1510 1506 1504 1518 1523 1523 1512 1517 1515 1494 1491 1494 1497 1497 1496 1496 1499 1500 1503 1505 1505 1509 1512 1515 1516 1518 1520 1522 1523 1524 1526 1527 1528 1528 1528 1527 1527 1526 1526
1501 1505 1505 1510 1503 1503 1504 1500 1506 1517 1513 1505 1521 1509 1490 1491 1495 1496 1496 1494 1496 1494 1494 1494 1497 1500 1503 1505 1509 1512 1514 1516 1518 1520 1521 1522 1523 1523 1523 1523 1523 1523 1522 1521
1499 1507 1510 1511 1509 1508 1508 1510 1513 1514 1523 1513 1499 1504 1492 1489 1490 1492 1492 1493 1491 1490 1490 1491 1492 1493 1497 1499 1502 1506 1510 1512 1515 1516 1517 1518 1519 1519 1519 1519 1518 1517 1517 1516
1496 1507 1511 1512 1510 1511 1508 1509 1515 1516 1518 1510 1504 1500 1486 1489 1490 1489 1489 1490 1489 1486 1484 1485 1486 1488 1491 1495 1498 1503 1506 1509 1511 1513 1514 1514 1514 1514 1515 1515 1513 1513 1512 1512
1493 1494 1513 1511 1510 1504 1510 1511 1511 1507 1509 1505 1502 1488 1485 1487 1491 1491 1492 1491 1488 1486 1484 1483 1484 1486 1488 1493 1497 1501 1505 1506 1507 1510 1510 1510 1510 1509 1509 1509 1508 1507 1506 1506
1496 1496 1508 1510 1510 1510 1502 1502 1502 1504 1511 1510 1510 1495 1487 1489 1491 1492 1490 1488 1486 1484 1483 1484 1484 1486 1489 1493 1497 1501 1503 1505 1505 1505 1507 1506 1506 1506 1504 1504 1504 1502 1502 1501
1494 1500 1508 1514 1513 1510 1508 1506 1503 1505 1510 1514 1505 1491 1489 1490 1491 1491 1490 1489 1486 1484 1483 1483 1485 1487 1490 1492 1495 1498 1500 1500 1501 1502 1502 1502 1501 1501 1500 1499 1499 1498 1496 1496
1495 1497 1494 1490 1491 1492 1502 1500 1501 1505 1511 1503 1495 1491 1485 1485 1486 1487 1487 1488 1487 1485 1486 1485 1485 1486 1488 1490 1492 1494 1496 1497 1498 1498 1498 1499 1496 1495 1495 1494 1493 1494 1492 1492
1493 1497 1502 1496 1498 1500 1499 1498 1498 1501 1501 1500 1492 1485 1481 1485 1486 1487 1486 1485 1484 1483 1482 1483 1483 1485 1486 1487 1489 1490 1492 1494 1495 1495 1494 1494 1492 1491 1489 1487 1489 1488 1488 1488
1495 1499 1502 1504 1503 1503 1502 1496 1494 1494 1493 1493 1493 1485 1487 1485 1485 1483 1481 1480 1479 1478 1478 1479 1480 1480 1482 1484 1485 1487 1488 1490 1490 1490 1490 1488 1487 1486 1486 1485 1485 1484 1485 1486
1495 1498 1501 1497 1505 1504 1498 1489 1490 1490 1489 1489 1489 1479 1482 1482 1481 1479 1476 1475 1473 1473 1473 1473 1473 1474 1476 1478 1481 1482 1484 1485 1485 1485 1485 1484 1483 1483 1483 1481 1482 1482 1484 1484
1493 1495 1498 1497 1506 1496 1487 1490 1490 1489 1486 1486 1485 1482 1482 1480 1478 1473 1471 1468 1466 1466 1467 1466 1466 1467 1471 1473 1475 1478 1479 1480 1480 1480 1481 1480 1479 1479 1479 1479 1478 1478 1479 1480
1492 1492 1498 1493 1491 1483 1479 1487 1487 1487 1483 1484 1483 1481 1480 1478 1474 1467 1467 1464 1460 1461 1462 1462 1462 1463 1465 1468 1470 1472 1474 1476 1476 1475 1475 1475 1475 1475 1474 1474 1474 1476 1477 1478
1493 1490 1488 1495 1492 1486 1480 1484 1486 1486 1480 1483 1484 1481 1479 1478 1470 1464 1464 1461 1457 1456 1457 1458 1458 1458 1461 1463 1466 1468 1470 1471 1471 1471 1470 1470 1471 1471 1471 1472 1472 1474 1475 1477
1493 1493 1489 1487 1486 1481 1480 1483 1485 1483 1487 1483 1483 1481 1479 1477 1474 1468 1464 1461 1458 1456 1455 1455 1455 1456 1457 1460 1462 1464 1465 1466 1467 1466 1466 1466 1467 1467 1468 1469 1470 1472 1473 1475
1480 1483 1487 1488 1490 1488 1481 1484 1482 1483 1483 1483 1481 1479 1476 1474 1470 1466 1464 1461 1459 1457 1456 1455 1456 1457 1458 1459 1461 1462 1462 1463 1463 1463 1463 1463 1463 1464 1465 1467 1468 1469 1471 1473
1482 1480 1480 1483 1479 1481 1482 1483 1483 1483 1483 1481 1479 1476 1474 1471 1468 1466 1464 1462 1460 1459 1458 1457 1457 1457 1458 1458 1458 1459 1459 1459 1459 1459 1459 1459 1460 1461 1462 1463 1465 1467 1469 1471
1486 1487 1482 1483 1480 1481 1482 1482 1483 1482 1481 1478 1476 1472 1470 1468 1466 1464 1463 1461 1460 1459 1459 1458 1457 1457 1457 1456 1456 1456 1456 1456 1455 1455 1455 1456 1456 1457 1458 1460 1462 1464 1467 1469
1488 1488 1485 1482 1480 1480 1481 1482 1481 1479 1477 1475 1471 1469 1466 1464 1463 1461 1461 1460 1459 1458 1457 1457 1456 1455 1455 1454 1454 1453 1452 1451 1452 1452 1452 1452 1454 1454 1455 1457 1459 1462 1464 1467
1490 1491 1488 1481 1489 1489 1484 1481 1479 1475 1472 1470 1467 1463 1462 1460 1459 1458 1457 1457 1456 1455 1455 1454 1454 1453 1452 1451 1451 1450 1449 1448 1447 1448 1448 1449 1450 1451 1452 1454 1456 1458 1460 1462